BREEZE-M DEB (TANK) - Orbit

View from above orbital plane
View from above orbital plane
View from above satellite
View from above satellite

Ground track
Ground track

The orbit data is extracted from the following two-line orbital elements,

1 27821U 03024B   13170.39400310  .00008131  00000-0  10622-2 0  1988
2 27821 049.5701 117.7597 5044519 020.4269 354.0873 05.56422634197695
Epoch (UTC): 19 June 2013 09:27:21
Eccentricity: 0.5044519
inclination: 49.5701°
perigee height: 288 km
apogee height: 13860 km
right ascension of ascending node: 117.7597°
argument of perigee: 20.4269°
revolutions per day: 5.56422634
mean anomaly at epoch: 354.0873°
orbit number at epoch: 19769

The dashed part of the orbit path shows where the satellite is in the earth's shadow,  

Developed and maintained by Chris Peat, Heavens-Above GmbH. Please read the updated FAQ before sending e-mail. Imprint. DLR